Palos Park, Illinois, United States (60464)
Lat: 41.67N, Lon: 87.83W
Wx Zone: ILZ014
Local Info
Past Weather Observations for Monday, April 20, 2015

NOTE: This archive is for the closest National Weather Service station to Palos Park. Information may differ from the station used for current weather conditions.

Click here for Long-term Archive

Time Weather Temperature Dewpoint Humidity Pressure Winds Precip Visibility
23:53
Overcast
45°F / 7°C 36°F / 2°C 71% 29.62 in
(1003 mb)
SW 11.5 mph
(SW 19 kph)
0.00 in
(0.00 mm)
10SM
22:53
Mostly Cloudy
Light Rain
45°F / 7°C 36°F / 2°C 71% 29.62 in
(1003 mb)
SSW 11.5 mph
(SSW 19 kph)
0.00 in
(0.00 mm)
10SM
21:53
Partly Cloudy
45°F / 7°C 34°F / 1°C 66% 29.62 in
(1003 mb)
SSW 11.5 mph
(SSW 19 kph)
- 10SM
20:53
Mostly Cloudy
46°F / 8°C 32°F / 0°C 57% 29.62 in
(1003 mb)
SW 11.5 mph
(SW 19 kph)
0.00 in
(0.00 mm)
10SM
19:53
Partly Cloudy
46°F / 8°C 30°F / -1°C 53% 29.62 in
(1003 mb)
SSW 15 mph
(SSW 24 kph)
- 10SM
18:53
Partly Cloudy
46°F / 8°C 30°F / -1°C 53% 29.59 in
(1002 mb)
W 17.3 mph
(W 28 kph)
- 10SM
17:53
Mostly Cloudy
48°F / 9°C 30°F / -1°C 50% 29.59 in
(1002 mb)
W 19.6 mph
(W 32 kph)
- 10SM
16:53
Overcast
48°F / 9°C 34°F / 1°C 58% 29.56 in
(1001 mb)
W 23 mph
(W 37 kph)
- 10SM
15:53
Overcast
48°F / 9°C 34°F / 1°C 58% 29.53 in
(1000 mb)
SSW 21.9 mph
(SSW 35 kph)
- 10SM
14:53
Overcast
48°F / 9°C 36°F / 2°C 62% 29.53 in
(1000 mb)
W 19.6 mph
(W 32 kph)
- 10SM
13:53
Overcast
48°F / 9°C 37°F / 3°C 66% 29.5 in
(999 mb)
W 20.7 mph
(W 33 kph)
0.00 in
(0.00 mm)
10SM
12:53
Overcast
Light Rain
46°F / 8°C 39°F / 4°C 76% 29.47 in
(998 mb)
SSW 18.4 mph
(SSW 30 kph)
0.00 in
(0.00 mm)
10SM
11:53
Overcast
48°F / 9°C 39°F / 4°C 71% 29.44 in
(997 mb)
SSW 25.3 mph
(SSW 41 kph)
- 10SM
10:53
Overcast
50°F / 10°C 39°F / 4°C 67% 29.42 in
(996 mb)
SSW 24.2 mph
(SSW 39 kph)
- 10SM
09:53
Overcast
48°F / 9°C 43°F / 6°C 82% 29.39 in
(995 mb)
SSW 17.3 mph
(SSW 28 kph)
- 10SM
08:53
Overcast
50°F / 10°C 45°F / 7°C 82% 29.33 in
(993 mb)
SSW 24.2 mph
(SSW 39 kph)
- 10SM
08:07
Overcast
52°F / 11°C 46°F / 8°C 82% 29.3 in
(992 mb)
SSW 21.9 mph
(SSW 35 kph)
- 10SM
07:53
Overcast
52°F / 11°C 46°F / 8°C 82% 29.3 in
(992 mb)
SSW 15 mph
(SSW 24 kph)
- 10SM
07:34
Overcast
52°F / 11°C 46°F / 8°C 82% 29.3 in
(992 mb)
W 25.3 mph
(W 41 kph)
- 10SM
06:53
Overcast
52°F / 11°C 48°F / 9°C 88% 29.27 in
(991 mb)
SW 16.1 mph
(SW 26 kph)
- 7SM
05:53
Overcast
Fog And Mist
52°F / 11°C 50°F / 10°C 94% 29.27 in
(991 mb)
SW 16.1 mph
(SW 26 kph)
0.00 in
(0.00 mm)
6SM
05:36
Overcast
54°F / 12°C 50°F / 10°C 88% 29.27 in
(991 mb)
SW 19.6 mph
(SW 32 kph)
0.00 in
(0.00 mm)
7SM
04:53
Overcast
Fog And Mist
55°F / 13°C 54°F / 12°C 94% 29.24 in
(990 mb)
SW 13.8 mph
(SW 22 kph)
- 2SM
03:53
Overcast
Fog And Mist
54°F / 12°C 52°F / 11°C 94% 29.24 in
(990 mb)
SSW 10.4 mph
(SSW 17 kph)
- 2SM
03:31
Overcast
Fog And Mist
54°F / 12°C 50°F / 10°C 88% 29.27 in
(991 mb)
SSW 9.2 mph
(SSW 15 kph)
- 2SM
02:53
Overcast
Fog And Mist
52°F / 11°C 48°F / 9°C 88% 29.27 in
(991 mb)
SSW 11.5 mph
(SSW 19 kph)
- 5SM
01:53
Overcast
Fog And Mist
52°F / 11°C 48°F / 9°C 88% 29.27 in
(991 mb)
SSW 11.5 mph
(SSW 19 kph)
- 6SM
01:37
Overcast
Fog And Mist
52°F / 11°C 50°F / 10°C 94% 29.27 in
(991 mb)
SSW 10.4 mph
(SSW 17 kph)
- 6SM
00:53
Overcast
Fog And Mist
52°F / 11°C 50°F / 10°C 94% 29.27 in
(991 mb)
SSW 10.4 mph
(SSW 17 kph)
- 3SM
Time Weather Temperature Dewpoint Humidity Pressure Winds Precip Visibility


Weather for websites

WeatherForYou.com, LLC is not responsible for any damages or problems caused by this service. Current weather conditions are obtained from the closest station including government and personal stations which may have varying degrees of accuracy. Weather forecasts are derived from the NOAA NDFD. Like all things, this site belongs to Jesus Christ... He just trusts us to maintain it. If you have any questions or comments email webmaster@weatherforyou.com

Copyright © 2015, WeatherForYou.com LLC. All rights reserved.